Time,TemperatureF,DewpointF,PressureIn,WindDirection,WindDirectionDegrees,WindSpeedMPH,WindSpeedGustMPH,Humidity,HourlyPrecipIn,Conditions,Clouds,dailyrainin,SoftwareType,DateUTC
2013-02-18 00:00:00,31.4,25.0,29.67,SE,136,7.0,13.0,77,0.00,,,0.01,VWS V14.01,2013-02-18 06:00:00,
2013-02-18 00:02:00,31.5,25.1,29.67,South,173,7.0,10.0,77,0.00,,,0.00,VWS V14.01,2013-02-18 06:02:00,
2013-02-18 00:07:00,31.6,25.2,29.67,South,180,4.0,12.0,77,0.00,,,0.00,VWS V14.01,2013-02-18 06:07:00,
2013-02-18 00:12:00,31.7,25.3,29.67,SSE,151,7.0,13.0,77,0.00,,,0.00,VWS V14.01,2013-02-18 06:12:00,
2013-02-18 00:15:00,31.7,25.3,29.67,SSE,158,6.0,13.0,77,0.00,,,0.00,VWS V14.01,2013-02-18 06:15:00,
2013-02-18 00:17:00,31.7,25.3,29.66,SSE,153,4.0,12.0,77,0.00,,,0.00,VWS V14.01,2013-02-18 06:17:00,
2013-02-18 00:23:00,31.5,25.1,29.66,SE,135,9.0,12.0,77,0.00,,,0.00,VWS V14.01,2013-02-18 06:23:00,
2013-02-18 00:28:00,31.4,25.0,29.66,SE,142,8.0,12.0,77,0.00,,,0.00,VWS V14.01,2013-02-18 06:28:00,
2013-02-18 00:30:00,31.4,25.0,29.66,South,173,7.0,12.0,77,0.00,,,0.00,VWS V14.01,2013-02-18 06:30:00,
2013-02-18 00:33:00,31.4,25.0,29.66,SSE,162,5.0,9.0,77,0.00,,,0.00,VWS V14.01,2013-02-18 06:33:00,
2013-02-18 00:38:00,31.2,25.1,29.65,SSE,153,6.0,9.0,78,0.00,,,0.00,VWS V14.01,2013-02-18 06:38:00,
2013-02-18 00:43:00,31.4,25.0,29.65,SSE,152,6.0,11.0,77,0.00,,,0.00,VWS V14.01,2013-02-18 06:43:00,
2013-02-18 00:45:00,31.4,25.0,29.65,SE,144,4.0,11.0,77,0.00,,,0.00,VWS V14.01,2013-02-18 06:45:00,
2013-02-18 00:48:00,31.5,25.1,29.65,South,171,2.0,11.0,77,0.00,,,0.00,VWS V14.01,2013-02-18 06:48:00,
2013-02-18 00:53:00,31.6,25.2,29.65,South,173,4.0,11.0,77,0.00,,,0.00,VWS V14.01,2013-02-18 06:53:00,
2013-02-18 00:58:00,31.5,25.1,29.65,South,171,4.0,11.0,77,0.00,,,0.00,VWS V14.01,2013-02-18 06:58:00,
2013-02-18 01:00:00,31.5,25.1,29.65,SSE,150,4.0,11.0,77,0.00,,,0.00,VWS V14.01,2013-02-18 07:00:00,
2013-02-18 01:03:00,31.6,25.2,29.65,SSE,150,9.0,12.0,77,0.00,,,0.00,VWS V14.01,2013-02-18 07:03:00,
2013-02-18 01:08:00,31.6,25.2,29.64,SSW,195,3.0,12.0,77,0.00,,,0.00,VWS V14.01,2013-02-18 07:08:00,
2013-02-18 01:13:00,31.6,25.2,29.64,SSE,153,7.0,12.0,77,0.00,,,0.00,VWS V14.01,2013-02-18 07:13:00,
2013-02-18 01:15:00,31.6,25.2,29.64,SSE,153,7.0,12.0,77,0.00,,,0.00,VWS V14.01,2013-02-18 07:15:00,
2013-02-18 01:18:00,31.5,25.1,29.64,South,186,4.0,7.0,77,0.00,,,0.00,VWS V14.01,2013-02-18 07:18:00,
2013-02-18 01:24:00,31.5,25.1,29.63,SSE,160,7.0,8.0,77,0.00,,,0.00,VWS V14.01,2013-02-18 07:24:00,
2013-02-18 01:29:00,31.4,25.4,29.63,South,173,9.0,9.0,78,0.00,,,0.00,VWS V14.01,2013-02-18 07:29:00,
2013-02-18 01:30:00,31.4,25.4,29.63,SSE,155,4.0,10.0,78,0.00,,,0.00,VWS V14.01,2013-02-18 07:30:00,
2013-02-18 01:34:00,31.5,25.4,29.63,South,181,4.0,10.0,78,0.00,,,0.00,VWS V14.01,2013-02-18 07:34:00,
2013-02-18 01:39:00,31.6,25.5,29.62,SSE,166,4.0,10.0,78,0.00,,,0.00,VWS V14.01,2013-02-18 07:39:00,
2013-02-18 01:44:00,31.8,25.4,29.62,SSE,163,6.0,8.0,77,0.00,,,0.00,VWS V14.01,2013-02-18 07:44:00,
2013-02-18 01:45:00,31.7,25.3,29.62,SSE,165,5.0,13.0,77,0.00,,,0.00,VWS V14.01,2013-02-18 07:45:00,
2013-02-18 01:49:00,31.9,25.5,29.62,SSE,151,8.0,9.0,77,0.00,,,0.00,VWS V14.01,2013-02-18 07:49:00,
2013-02-18 01:54:00,31.9,25.5,29.62,SSE,163,5.0,10.0,77,0.00,,,0.00,VWS V14.01,2013-02-18 07:54:00,
2013-02-18 02:00:00,32.0,25.6,29.61,South,178,7.0,7.0,77,0.00,,,0.00,VWS V14.01,2013-02-18 08:00:00,
2013-02-18 02:05:00,32.1,25.7,29.61,SSW,202,6.0,14.0,77,0.00,,,0.00,VWS V14.01,2013-02-18 08:05:00,
2013-02-18 02:10:00,32.1,25.7,29.61,SSE,167,6.0,14.0,77,0.00,,,0.00,VWS V14.01,2013-02-18 08:10:00,
2013-02-18 02:15:00,32.2,25.8,29.61,South,181,11.0,14.0,77,0.00,,,0.00,VWS V14.01,2013-02-18 08:15:00,
2013-02-18 02:20:00,32.3,25.9,29.61,South,188,4.0,14.0,77,0.00,,,0.00,VWS V14.01,2013-02-18 08:20:00,
2013-02-18 02:25:00,32.2,25.8,29.61,SSW,196,10.0,14.0,77,0.00,,,0.00,VWS V14.01,2013-02-18 08:25:00,
2013-02-18 02:30:00,32.3,26.2,29.60,SSE,159,4.0,9.0,78,0.00,,,0.00,VWS V14.01,2013-02-18 08:30:00,
2013-02-18 02:36:00,32.4,26.3,29.60,SW,225,5.0,21.0,78,0.00,,,0.00,VWS V14.01,2013-02-18 08:36:00,
2013-02-18 02:41:00,32.5,26.1,29.60,SSW,194,8.0,21.0,77,0.00,,,0.00,VWS V14.01,2013-02-18 08:41:00,
2013-02-18 02:45:00,32.4,26.3,29.60,SSE,163,4.0,21.0,78,0.00,,,0.00,VWS V14.01,2013-02-18 08:45:00,
2013-02-18 02:46:00,32.3,26.2,29.60,SSW,202,5.0,10.0,78,0.00,,,0.00,VWS V14.01,2013-02-18 08:46:00,
2013-02-18 02:51:00,32.3,26.2,29.60,South,178,6.0,10.0,78,0.00,,,0.00,VWS V14.01,2013-02-18 08:51:00,
2013-02-18 02:56:00,32.3,26.2,29.60,South,174,7.0,12.0,78,0.00,,,0.00,VWS V14.01,2013-02-18 08:56:00,
2013-02-18 03:00:00,32.3,26.2,29.60,SSE,161,6.0,12.0,78,0.00,,,0.00,VWS V14.01,2013-02-18 09:00:00,
2013-02-18 03:01:00,32.3,26.2,29.60,SSE,165,6.0,14.0,78,0.00,,,0.00,VWS V14.01,2013-02-18 09:01:00,
2013-02-18 03:06:00,32.2,26.1,29.60,SW,218,5.0,14.0,78,0.00,,,0.00,VWS V14.01,2013-02-18 09:06:00,
2013-02-18 03:11:00,32.3,26.5,29.59,SSW,192,5.0,14.0,79,0.00,,,0.00,VWS V14.01,2013-02-18 09:11:00,
2013-02-18 03:15:00,32.3,26.5,29.59,SSW,207,10.0,14.0,79,0.00,,,0.00,VWS V14.01,2013-02-18 09:15:00,
2013-02-18 03:16:00,32.3,26.2,29.59,SSW,196,9.0,11.0,78,0.00,,,0.00,VWS V14.01,2013-02-18 09:16:00,
2013-02-18 03:21:00,32.3,26.5,29.60,South,182,5.0,14.0,79,0.00,,,0.00,VWS V14.01,2013-02-18 09:21:00,
2013-02-18 03:27:00,32.2,26.4,29.60,South,190,3.0,14.0,79,0.00,,,0.00,VWS V14.01,2013-02-18 09:27:00,
2013-02-18 03:30:00,32.1,26.3,29.60,SSW,194,6.0,14.0,79,0.00,,,0.00,VWS V14.01,2013-02-18 09:30:00,
2013-02-18 03:32:00,32.1,26.3,29.59,South,171,6.0,10.0,79,0.00,,,0.00,VWS V14.01,2013-02-18 09:32:00,
2013-02-18 03:37:00,32.0,26.2,29.58,SSW,193,3.0,10.0,79,0.00,,,0.00,VWS V14.01,2013-02-18 09:37:00,
2013-02-18 03:42:00,32.0,26.5,29.58,South,187,2.0,10.0,80,0.00,,,0.00,VWS V14.01,2013-02-18 09:42:00,
2013-02-18 03:45:00,32.0,26.5,29.58,SSW,207,4.0,10.0,80,0.00,,,0.00,VWS V14.01,2013-02-18 09:45:00,
2013-02-18 03:47:00,32.0,26.5,29.59,South,188,5.0,10.0,80,0.00,,,0.00,VWS V14.01,2013-02-18 09:47:00,
2013-02-18 03:52:00,32.0,26.5,29.58,South,189,6.0,10.0,80,0.00,,,0.00,VWS V14.01,2013-02-18 09:52:00,
2013-02-18 03:57:00,32.0,26.5,29.58,South,188,5.0,10.0,80,0.00,,,0.00,VWS V14.01,2013-02-18 09:57:00,
2013-02-18 04:00:00,32.0,26.5,29.58,West,277,4.0,10.0,80,0.00,,,0.00,VWS V14.01,2013-02-18 10:00:00,
2013-02-18 04:02:00,32.1,26.6,29.58,SSW,200,4.0,11.0,80,0.00,,,0.00,VWS V14.01,2013-02-18 10:02:00,
2013-02-18 04:08:00,32.1,26.6,29.56,SSW,192,6.0,11.0,80,0.00,,,0.00,VWS V14.01,2013-02-18 10:08:00,
2013-02-18 04:13:00,32.1,26.6,29.57,SSW,192,6.0,12.0,80,0.00,,,0.00,VWS V14.01,2013-02-18 10:13:00,
2013-02-18 04:15:00,32.2,26.7,29.57,SW,217,7.0,12.0,80,0.00,,,0.00,VWS V14.01,2013-02-18 10:15:00,
2013-02-18 04:18:00,32.1,26.6,29.57,South,179,2.0,8.0,80,0.00,,,0.00,VWS V14.01,2013-02-18 10:18:00,
2013-02-18 04:23:00,32.2,27.0,29.57,South,182,4.0,8.0,81,0.00,,,0.00,VWS V14.01,2013-02-18 10:23:00,
2013-02-18 04:28:00,32.3,27.1,29.57,SW,214,2.0,8.0,81,0.00,,,0.00,VWS V14.01,2013-02-18 10:28:00,
2013-02-18 04:30:00,32.3,27.1,29.57,SSW,206,0.0,8.0,81,0.00,,,0.00,VWS V14.01,2013-02-18 10:30:00,
2013-02-18 04:33:00,32.3,27.1,29.57,SSW,205,3.0,11.0,81,0.00,,,0.00,VWS V14.01,2013-02-18 10:33:00,
2013-02-18 04:38:00,32.3,27.1,29.58,SW,219,2.0,11.0,81,0.00,,,0.00,VWS V14.01,2013-02-18 10:38:00,
2013-02-18 04:44:00,32.4,27.5,29.57,North,351,1.0,2.0,82,0.00,,,0.00,VWS V14.01,2013-02-18 10:44:00,
2013-02-18 04:45:00,32.4,27.5,29.57,WSW,256,2.0,11.0,82,0.00,,,0.00,VWS V14.01,2013-02-18 10:45:00,
2013-02-18 04:49:00,32.4,27.5,29.57,South,180,1.0,4.0,82,0.00,,,0.00,VWS V14.01,2013-02-18 10:49:00,
2013-02-18 04:54:00,32.4,27.5,29.57,SW,221,1.0,6.0,82,0.00,,,0.00,VWS V14.01,2013-02-18 10:54:00,
2013-02-18 04:59:00,32.3,27.4,29.57,SSW,195,4.0,4.0,82,0.00,,,0.00,VWS V14.01,2013-02-18 10:59:00,
2013-02-18 05:00:00,32.3,27.4,29.57,SSW,211,0.0,7.0,82,0.00,,,0.00,VWS V14.01,2013-02-18 11:00:00,
2013-02-18 05:04:00,32.3,27.4,29.58,WSW,241,0.0,7.0,82,0.00,,,0.00,VWS V14.01,2013-02-18 11:04:00,
2013-02-18 05:09:00,32.3,27.7,29.58,WNW,292,0.0,7.0,83,0.00,,,0.00,VWS V14.01,2013-02-18 11:09:00,
2013-02-18 05:14:00,32.4,27.8,29.58,West,263,0.0,2.0,83,0.00,,,0.00,VWS V14.01,2013-02-18 11:14:00,
2013-02-18 05:15:00,32.4,27.8,29.58,North,360,0.0,7.0,83,0.00,,,0.00,VWS V14.01,2013-02-18 11:15:00,
2013-02-18 05:19:00,32.4,27.8,29.57,SW,225,2.0,3.0,83,0.00,,,0.00,VWS V14.01,2013-02-18 11:19:00,
2013-02-18 05:24:00,32.5,27.9,29.56,SW,234,1.0,4.0,83,0.00,,,0.00,VWS V14.01,2013-02-18 11:24:00,
2013-02-18 05:30:00,32.4,27.8,29.56,NNW,344,0.0,3.0,83,0.00,,,0.00,VWS V14.01,2013-02-18 11:30:00,
2013-02-18 05:35:00,32.4,28.1,29.56,WNW,289,0.0,4.0,84,0.00,,,0.00,VWS V14.01,2013-02-18 11:35:00,
2013-02-18 05:40:00,32.3,28.0,29.57,WNW,296,1.0,4.0,84,0.00,,,0.00,VWS V14.01,2013-02-18 11:40:00,
2013-02-18 05:45:00,32.2,27.9,29.57,SE,140,1.0,4.0,84,0.00,,,0.00,VWS V14.01,2013-02-18 11:45:00,
2013-02-18 05:50:00,32.2,28.2,29.57,NW,324,0.0,4.0,85,0.00,,,0.00,VWS V14.01,2013-02-18 11:50:00,
2013-02-18 05:55:00,32.2,28.2,29.56,West,277,1.0,4.0,85,0.00,,,0.00,VWS V14.01,2013-02-18 11:55:00,
2013-02-18 06:00:00,32.1,28.1,29.57,SE,126,0.0,4.0,85,0.00,,,0.00,VWS V14.01,2013-02-18 12:00:00,
2013-02-18 06:06:00,32.0,28.0,29.57,WSW,248,3.0,4.0,85,0.00,,,0.00,VWS V14.01,2013-02-18 12:06:00,
2013-02-18 06:11:00,31.9,28.2,29.57,East,86,3.0,4.0,86,0.00,,,0.00,VWS V14.01,2013-02-18 12:11:00,
2013-02-18 06:15:00,31.9,28.2,29.57,WNW,291,0.0,4.0,86,0.00,,,0.00,VWS V14.01,2013-02-18 12:15:00,
2013-02-18 06:16:00,31.8,28.1,29.57,SE,142,0.0,2.0,86,0.00,,,0.00,VWS V14.01,2013-02-18 12:16:00,
2013-02-18 06:21:00,31.7,28.0,29.57,SE,142,1.0,2.0,86,0.00,,,0.00,VWS V14.01,2013-02-18 12:21:00,
2013-02-18 06:26:00,31.6,28.2,29.58,South,186,0.0,2.0,87,0.00,,,0.00,VWS V14.01,2013-02-18 12:26:00,
2013-02-18 06:30:00,31.5,28.1,29.57,WSW,254,1.0,2.0,87,0.00,,,0.00,VWS V14.01,2013-02-18 12:30:00,
2013-02-18 06:31:00,31.5,28.1,29.58,WSW,258,0.0,1.0,87,0.00,,,0.00,VWS V14.01,2013-02-18 12:31:00,
2013-02-18 06:36:00,31.4,28.0,29.58,West,278,0.0,2.0,87,0.00,,,0.00,VWS V14.01,2013-02-18 12:36:00,
2013-02-18 06:41:00,31.2,28.1,29.57,WSW,248,0.0,2.0,88,0.00,,,0.00,VWS V14.01,2013-02-18 12:41:00,
2013-02-18 06:45:00,31.1,28.0,29.57,SSE,155,0.0,2.0,88,0.00,,,0.00,VWS V14.01,2013-02-18 12:45:00,
2013-02-18 06:46:00,31.1,28.0,29.57,East,100,0.0,1.0,88,0.00,,,0.00,VWS V14.01,2013-02-18 12:46:00,
2013-02-18 06:51:00,31.0,28.1,29.57,ESE,105,0.0,2.0,89,0.00,,,0.00,VWS V14.01,2013-02-18 12:51:00,
2013-02-18 06:56:00,30.9,28.0,29.57,West,261,0.0,3.0,89,0.00,,,0.00,VWS V14.01,2013-02-18 12:56:00,
2013-02-18 07:00:00,31.0,28.1,29.57,West,273,0.0,3.0,89,0.00,,,0.00,VWS V14.01,2013-02-18 13:00:00,
2013-02-18 07:01:00,31.0,28.1,29.57,West,273,0.0,1.0,89,0.00,,,0.00,VWS V14.01,2013-02-18 13:01:00,
2013-02-18 07:07:00,31.0,28.4,29.57,West,273,0.0,1.0,90,0.00,,,0.00,VWS V14.01,2013-02-18 13:07:00,
2013-02-18 07:12:00,30.9,28.0,29.57,West,273,0.0,1.0,89,0.00,,,0.00,VWS V14.01,2013-02-18 13:12:00,
2013-02-18 07:15:00,30.8,28.0,29.57,West,269,0.0,1.0,89,0.00,,,0.00,VWS V14.01,2013-02-18 13:15:00,
2013-02-18 07:17:00,30.8,28.0,29.57,West,269,0.0,1.0,89,0.00,,,0.00,VWS V14.01,2013-02-18 13:17:00,
2013-02-18 07:22:00,30.7,28.1,29.57,West,269,0.0,1.0,90,0.00,,,0.00,VWS V14.01,2013-02-18 13:22:00,
2013-02-18 07:27:00,30.5,27.9,29.57,West,269,0.0,1.0,90,0.00,,,0.00,VWS V14.01,2013-02-18 13:27:00,
2013-02-18 07:30:00,30.5,27.9,29.57,West,269,0.0,1.0,90,0.00,,,0.00,VWS V14.01,2013-02-18 13:30:00,
2013-02-18 07:32:00,30.5,27.9,29.57,SSW,195,0.0,2.0,90,0.00,,,0.00,VWS V14.01,2013-02-18 13:32:00,
2013-02-18 07:37:00,30.4,27.8,29.58,SSW,195,0.0,2.0,90,0.00,,,0.00,VWS V14.01,2013-02-18 13:37:00,
2013-02-18 07:42:00,30.4,28.1,29.58,WNW,298,0.0,2.0,91,0.00,,,0.00,VWS V14.01,2013-02-18 13:42:00,
2013-02-18 07:45:00,30.5,28.2,29.58,NNW,327,0.0,3.0,91,0.00,,,0.00,VWS V14.01,2013-02-18 13:45:00,
2013-02-18 07:47:00,30.5,28.2,29.58,NNW,337,0.0,1.0,91,0.00,,,0.00,VWS V14.01,2013-02-18 13:47:00,
2013-02-18 07:52:00,30.6,28.3,29.58,NNW,338,0.0,1.0,91,0.00,,,0.00,VWS V14.01,2013-02-18 13:52:00,
2013-02-18 07:58:00,30.6,28.3,29.58,NNW,338,0.0,1.0,91,0.00,,,0.00,VWS V14.01,2013-02-18 13:58:00,
2013-02-18 08:00:00,30.7,28.4,29.58,NNW,338,0.0,1.0,91,0.00,,,0.00,VWS V14.01,2013-02-18 14:00:00,
2013-02-18 08:03:00,30.8,28.5,29.58,NW,318,1.0,1.0,91,0.00,,,0.00,VWS V14.01,2013-02-18 14:03:00,
2013-02-18 08:08:00,30.9,28.6,29.58,West,272,1.0,1.0,91,0.00,,,0.00,VWS V14.01,2013-02-18 14:08:00,
2013-02-18 08:13:00,31.0,28.4,29.59,West,279,0.0,1.0,90,0.00,,,0.00,VWS V14.01,2013-02-18 14:13:00,
2013-02-18 08:15:00,31.0,28.4,29.59,WNW,283,1.0,1.0,90,0.00,,,0.00,VWS V14.01,2013-02-18 14:15:00,
2013-02-18 08:18:00,31.1,28.5,29.59,ENE,69,0.0,3.0,90,0.00,,,0.00,VWS V14.01,2013-02-18 14:18:00,
2013-02-18 08:23:00,31.1,28.5,29.59,SSE,163,2.0,3.0,90,0.00,,,0.00,VWS V14.01,2013-02-18 14:23:00,
2013-02-18 08:28:00,31.2,28.6,29.59,SE,145,0.0,3.0,90,0.00,,,0.00,VWS V14.01,2013-02-18 14:28:00,
2013-02-18 08:30:00,31.2,28.6,29.59,SE,145,0.0,3.0,90,0.00,,,0.00,VWS V14.01,2013-02-18 14:30:00,
2013-02-18 08:34:00,31.2,28.6,29.59,West,259,0.0,2.0,90,0.00,,,0.00,VWS V14.01,2013-02-18 14:34:00,
2013-02-18 08:39:00,31.3,28.7,29.60,North,360,0.0,2.0,90,0.00,,,0.00,VWS V14.01,2013-02-18 14:39:00,
2013-02-18 08:44:00,31.4,28.8,29.60,North,5,0.0,0.0,90,0.00,,,0.00,VWS V14.01,2013-02-18 14:44:00,
2013-02-18 08:45:00,31.4,28.8,29.60,North,5,0.0,2.0,90,0.00,,,0.00,VWS V14.01,2013-02-18 14:45:00,
2013-02-18 08:49:00,31.5,28.9,29.60,ENE,69,0.0,1.0,90,0.00,,,0.00,VWS V14.01,2013-02-18 14:49:00,
2013-02-18 08:54:00,31.5,28.9,29.60,ENE,74,0.0,2.0,90,0.00,,,0.00,VWS V14.01,2013-02-18 14:54:00,
2013-02-18 08:59:00,31.6,29.0,29.59,West,259,0.0,0.0,90,0.00,,,0.00,VWS V14.01,2013-02-18 14:59:00,
2013-02-18 09:00:00,31.6,29.0,29.59,West,259,0.0,2.0,90,0.00,,,0.00,VWS V14.01,2013-02-18 15:00:00,
2013-02-18 09:04:00,31.8,29.2,29.60,West,265,1.0,1.0,90,0.00,,,0.00,VWS V14.01,2013-02-18 15:04:00,
2013-02-18 09:09:00,31.9,29.0,29.60,South,171,0.0,1.0,89,0.00,,,0.00,VWS V14.01,2013-02-18 15:09:00,
2013-02-18 09:15:00,32.0,29.1,29.60,WNW,286,0.0,2.0,89,0.00,,,0.00,VWS V14.01,2013-02-18 15:15:00,
2013-02-18 09:20:00,32.1,29.2,29.60,NW,316,0.0,2.0,89,0.00,,,0.00,VWS V14.01,2013-02-18 15:20:00,
2013-02-18 09:25:00,32.2,29.3,29.60,North,355,0.0,2.0,89,0.00,,,0.00,VWS V14.01,2013-02-18 15:25:00,
2013-02-18 09:30:00,32.4,29.5,29.60,South,188,1.0,2.0,89,0.00,,,0.00,VWS V14.01,2013-02-18 15:30:00,
2013-02-18 09:35:00,32.4,29.2,29.60,East,91,1.0,2.0,88,0.00,,,0.00,VWS V14.01,2013-02-18 15:35:00,
2013-02-18 09:40:00,32.5,29.6,29.60,ENE,72,1.0,2.0,89,0.00,,,0.00,VWS V14.01,2013-02-18 15:40:00,
2013-02-18 09:45:00,32.6,29.7,29.60,North,10,1.0,2.0,89,0.00,,,0.00,VWS V14.01,2013-02-18 15:45:00,
2013-02-18 09:46:00,32.7,29.8,29.60,NNE,17,1.0,2.0,89,0.00,,,0.00,VWS V14.01,2013-02-18 15:46:00,
2013-02-18 09:51:00,32.8,29.9,29.59,NNE,24,0.0,2.0,89,0.00,,,0.00,VWS V14.01,2013-02-18 15:51:00,
2013-02-18 09:56:00,33.0,30.1,29.59,NW,304,1.0,5.0,89,0.00,,,0.00,VWS V14.01,2013-02-18 15:56:00,
2013-02-18 10:00:00,33.1,30.2,29.59,NW,307,0.0,5.0,89,0.00,,,0.00,VWS V14.01,2013-02-18 16:00:00,
2013-02-18 10:01:00,33.2,30.3,29.59,WNW,297,0.0,4.0,89,0.00,,,0.00,VWS V14.01,2013-02-18 16:01:00,
2013-02-18 10:06:00,33.2,30.6,29.59,NW,317,0.0,5.0,90,0.00,,,0.00,VWS V14.01,2013-02-18 16:06:00,
2013-02-18 10:11:00,33.3,30.7,29.60,North,355,2.0,7.0,90,0.00,,,0.00,VWS V14.01,2013-02-18 16:11:00,
2013-02-18 10:15:00,33.4,30.8,29.60,North,355,0.0,7.0,90,0.00,,,0.00,VWS V14.01,2013-02-18 16:15:00,
2013-02-18 10:17:00,33.4,30.8,29.59,NNE,28,2.0,3.0,90,0.00,,,0.00,VWS V14.01,2013-02-18 16:17:00,
2013-02-18 10:22:00,33.4,30.8,29.59,NW,307,4.0,11.0,90,0.00,,,0.00,VWS V14.01,2013-02-18 16:22:00,
2013-02-18 10:27:00,33.3,31.0,29.60,NW,320,3.0,11.0,91,0.00,,,0.00,VWS V14.01,2013-02-18 16:27:00,
2013-02-18 10:30:00,33.3,31.0,29.60,West,277,2.0,11.0,91,0.00,,,0.00,VWS V14.01,2013-02-18 16:30:00,
2013-02-18 10:32:00,33.3,31.0,29.60,NW,311,1.0,8.0,91,0.00,,,0.00,VWS V14.01,2013-02-18 16:32:00,
2013-02-18 10:37:00,33.4,31.3,29.61,WNW,294,0.0,8.0,92,0.00,,,0.00,VWS V14.01,2013-02-18 16:37:00,
2013-02-18 10:42:00,33.5,31.4,29.61,West,272,3.0,8.0,92,0.00,,,0.00,VWS V14.01,2013-02-18 16:42:00,
2013-02-18 10:45:00,33.5,31.4,29.61,West,279,1.0,8.0,92,0.00,,,0.00,VWS V14.01,2013-02-18 16:45:00,
2013-02-18 10:47:00,33.5,31.4,29.61,WNW,300,0.0,6.0,92,0.00,,,0.00,VWS V14.01,2013-02-18 16:47:00,
2013-02-18 10:53:00,33.7,31.6,29.61,NW,312,3.0,6.0,92,0.00,,,0.00,VWS V14.01,2013-02-18 16:53:00,
2013-02-18 10:58:00,33.2,30.9,29.61,West,281,1.0,8.0,91,0.00,,,0.00,VWS V14.01,2013-02-18 16:58:00,
2013-02-18 11:00:00,33.2,30.6,29.61,NW,317,5.0,8.0,90,0.00,,,0.00,VWS V14.01,2013-02-18 17:00:00,
2013-02-18 11:03:00,32.6,30.0,29.61,South,169,0.0,9.0,90,0.00,,,0.00,VWS V14.01,2013-02-18 17:03:00,
2013-02-18 11:08:00,32.4,30.1,29.62,NE,44,1.0,9.0,91,0.00,,,0.00,VWS V14.01,2013-02-18 17:08:00,
2013-02-18 11:13:00,32.1,29.5,29.62,NW,323,11.0,14.0,90,0.00,,,0.00,VWS V14.01,2013-02-18 17:13:00,
2013-02-18 11:15:00,32.1,29.5,29.62,SSE,154,9.0,14.0,90,0.00,,,0.00,VWS V14.01,2013-02-18 17:15:00,
2013-02-18 11:18:00,31.5,28.6,29.62,WNW,298,4.0,11.0,89,0.00,,,0.00,VWS V14.01,2013-02-18 17:18:00,
2013-02-18 11:23:00,30.9,27.5,29.62,WNW,296,3.0,11.0,87,0.00,,,0.00,VWS V14.01,2013-02-18 17:23:00,
2013-02-18 11:28:00,30.3,26.6,29.62,WSW,238,3.0,13.0,86,0.00,,,0.00,VWS V14.01,2013-02-18 17:28:00,
2013-02-18 11:30:00,30.3,26.6,29.62,WSW,238,3.0,13.0,86,0.00,,,0.00,VWS V14.01,2013-02-18 17:30:00,
2013-02-18 11:33:00,29.9,26.0,29.62,NW,320,6.0,14.0,85,0.00,,,0.00,VWS V14.01,2013-02-18 17:33:00,
2013-02-18 11:39:00,29.3,25.1,29.62,NW,317,11.0,17.0,84,0.00,,,0.00,VWS V14.01,2013-02-18 17:39:00,
2013-02-18 11:44:00,29.2,25.3,29.63,WNW,296,4.0,6.0,85,0.00,,,0.00,VWS V14.01,2013-02-18 17:44:00,
2013-02-18 11:45:00,29.3,25.4,29.63,NW,313,4.0,17.0,85,0.00,,,0.00,VWS V14.01,2013-02-18 17:45:00,
2013-02-18 11:49:00,29.3,25.1,29.63,NNW,330,6.0,14.0,84,0.00,,,0.00,VWS V14.01,2013-02-18 17:49:00,
2013-02-18 11:54:00,29.1,24.6,29.63,NW,305,8.0,14.0,83,0.00,,,0.00,VWS V14.01,2013-02-18 17:54:00,
2013-02-18 11:59:00,29.0,24.8,29.63,NW,304,7.0,7.0,84,0.00,,,0.00,VWS V14.01,2013-02-18 17:59:00,
2013-02-18 12:00:00,29.0,24.8,29.63,West,264,0.0,14.0,84,0.00,,,0.00,VWS V14.01,2013-02-18 18:00:00,
2013-02-18 12:04:00,29.0,24.5,29.63,NNW,329,5.0,10.0,83,0.00,,,0.00,VWS V14.01,2013-02-18 18:04:00,
2013-02-18 12:09:00,28.8,24.3,29.63,WNW,290,5.0,12.0,83,0.00,,,0.00,VWS V14.01,2013-02-18 18:09:00,
2013-02-18 12:14:00,28.4,23.6,29.63,NW,324,8.0,16.0,82,0.00,,,0.00,VWS V14.01,2013-02-18 18:14:00,
2013-02-18 12:15:00,28.5,23.7,29.63,WNW,284,5.0,14.0,82,0.00,,,0.00,VWS V14.01,2013-02-18 18:15:00,
2013-02-18 12:19:00,28.1,23.3,29.62,NW,304,6.0,16.0,82,0.00,,,0.00,VWS V14.01,2013-02-18 18:19:00,
2013-02-18 12:25:00,27.8,23.0,29.62,WNW,286,4.0,16.0,82,0.00,,,0.00,VWS V14.01,2013-02-18 18:25:00,
2013-02-18 12:30:00,27.6,22.8,29.63,NW,321,7.0,12.0,82,0.00,,,0.00,VWS V14.01,2013-02-18 18:30:00,
2013-02-18 12:35:00,27.5,22.7,29.63,WNW,286,7.0,13.0,82,0.00,,,0.00,VWS V14.01,2013-02-18 18:35:00,
2013-02-18 12:40:00,27.5,22.7,29.63,NW,314,7.0,13.0,82,0.00,,,0.00,VWS V14.01,2013-02-18 18:40:00,
2013-02-18 12:45:00,27.5,22.5,29.63,NNW,331,7.0,9.0,81,0.00,,,0.00,VWS V14.01,2013-02-18 18:45:00,
2013-02-18 12:50:00,27.2,21.9,29.63,North,355,2.0,12.0,80,0.00,,,0.00,VWS V14.01,2013-02-18 18:50:00,
2013-02-18 12:55:00,26.9,21.6,29.63,NW,324,7.0,17.0,80,0.00,,,0.00,VWS V14.01,2013-02-18 18:55:00,
2013-02-18 13:00:00,26.2,20.9,29.63,West,268,8.0,13.0,80,0.00,,,0.00,VWS V14.01,2013-02-18 19:00:00,
2013-02-18 13:05:00,25.9,20.6,29.63,NNW,333,6.0,13.0,80,0.00,,,0.00,VWS V14.01,2013-02-18 19:05:00,
2013-02-18 13:11:00,25.9,20.6,29.63,NW,313,5.0,13.0,80,0.00,,,0.00,VWS V14.01,2013-02-18 19:11:00,
2013-02-18 13:15:00,25.8,20.2,29.63,West,269,6.0,17.0,79,0.00,,,0.00,VWS V14.01,2013-02-18 19:15:00,
2013-02-18 13:16:00,25.6,20.0,29.63,NNW,336,10.0,14.0,79,0.00,,,0.00,VWS V14.01,2013-02-18 19:16:00,
2013-02-18 13:21:00,25.7,20.4,29.64,NW,323,2.0,14.0,80,0.00,,,0.00,VWS V14.01,2013-02-18 19:21:00,
2013-02-18 13:27:00,25.5,19.9,29.64,NW,316,5.0,16.0,79,0.00,,,0.00,VWS V14.01,2013-02-18 19:27:00,
2013-02-18 13:30:00,25.2,19.6,29.64,NNW,327,5.0,16.0,79,0.00,,,0.00,VWS V14.01,2013-02-18 19:30:00,
2013-02-18 13:32:00,25.1,19.2,29.64,NNW,332,7.0,11.0,78,0.00,,,0.00,VWS V14.01,2013-02-18 19:32:00,
2013-02-18 13:37:00,24.5,18.6,29.64,West,271,4.0,12.0,78,0.00,,,0.00,VWS V14.01,2013-02-18 19:37:00,
2013-02-18 13:42:00,24.2,18.3,29.65,WNW,294,11.0,12.0,78,0.00,,,0.00,VWS V14.01,2013-02-18 19:42:00,
2013-02-18 13:45:00,24.1,18.2,29.65,WSW,252,12.0,12.0,78,0.00,,,0.00,VWS V14.01,2013-02-18 19:45:00,
2013-02-18 13:47:00,23.9,18.0,29.65,NW,319,3.0,13.0,78,0.00,,,0.00,VWS V14.01,2013-02-18 19:47:00,
2013-02-18 13:52:00,23.7,17.6,29.65,NW,310,8.0,16.0,77,0.00,,,0.00,VWS V14.01,2013-02-18 19:52:00,
2013-02-18 13:57:00,23.0,16.9,29.66,ESE,102,4.0,20.0,77,0.00,,,0.00,VWS V14.01,2013-02-18 19:57:00,
2013-02-18 14:00:00,23.0,17.2,29.65,WNW,294,6.0,20.0,78,0.00,,,0.00,VWS V14.01,2013-02-18 20:00:00,
2013-02-18 14:02:00,22.8,16.7,29.66,NNW,329,6.0,13.0,77,0.00,,,0.00,VWS V14.01,2013-02-18 20:02:00,
2013-02-18 14:07:00,22.2,16.1,29.66,NW,323,5.0,19.0,77,0.00,,,0.00,VWS V14.01,2013-02-18 20:07:00,
2013-02-18 14:12:00,22.2,16.4,29.67,NW,313,3.0,19.0,78,0.00,,,0.00,VWS V14.01,2013-02-18 20:12:00,
2013-02-18 14:15:00,22.2,16.4,29.67,NW,316,5.0,19.0,78,0.00,,,0.00,VWS V14.01,2013-02-18 20:15:00,
2013-02-18 14:17:00,22.1,16.0,29.67,NW,311,8.0,15.0,77,0.00,,,0.00,VWS V14.01,2013-02-18 20:17:00,
2013-02-18 14:23:00,21.9,15.8,29.67,South,173,8.0,15.0,77,0.00,,,0.00,VWS V14.01,2013-02-18 20:23:00,
2013-02-18 14:28:00,21.7,15.6,29.67,NW,318,9.0,15.0,77,0.00,,,0.00,VWS V14.01,2013-02-18 20:28:00,
2013-02-18 14:30:00,21.7,15.6,29.67,NW,319,5.0,15.0,77,0.00,,,0.00,VWS V14.01,2013-02-18 20:30:00,
2013-02-18 14:33:00,21.2,15.1,29.68,WNW,284,7.0,13.0,77,0.00,,,0.00,VWS V14.01,2013-02-18 20:33:00,
2013-02-18 14:38:00,20.8,14.7,29.68,NW,315,5.0,14.0,77,0.00,,,0.00,VWS V14.01,2013-02-18 20:38:00,
2013-02-18 14:43:00,20.9,14.8,29.68,NW,309,10.0,14.0,77,0.00,,,0.00,VWS V14.01,2013-02-18 20:43:00,
2013-02-18 14:45:00,20.9,14.8,29.68,WSW,255,7.0,14.0,77,0.00,,,0.00,VWS V14.01,2013-02-18 20:45:00,
2013-02-18 14:48:00,20.7,14.4,29.69,NW,320,6.0,13.0,76,0.00,,,0.00,VWS V14.01,2013-02-18 20:48:00,
2013-02-18 14:53:00,20.8,14.7,29.69,West,261,4.0,14.0,77,0.00,,,0.00,VWS V14.01,2013-02-18 20:53:00,
2013-02-18 14:58:00,20.9,14.8,29.70,NNW,337,14.0,14.0,77,0.00,,,0.00,VWS V14.01,2013-02-18 20:58:00,
2013-02-18 15:00:00,20.9,14.8,29.70,NNW,337,14.0,14.0,77,0.00,,,0.00,VWS V14.01,2013-02-18 21:00:00,
2013-02-18 15:03:00,20.3,14.3,29.70,West,280,5.0,17.0,77,0.00,,,0.00,VWS V14.01,2013-02-18 21:03:00,
2013-02-18 15:09:00,19.9,13.9,29.70,WNW,298,11.0,19.0,77,0.00,,,0.00,VWS V14.01,2013-02-18 21:09:00,
2013-02-18 15:14:00,19.8,14.1,29.70,NW,307,4.0,5.0,78,0.00,,,0.00,VWS V14.01,2013-02-18 21:14:00,
2013-02-18 15:15:00,19.8,14.1,29.70,NW,309,5.0,19.0,78,0.00,,,0.00,VWS V14.01,2013-02-18 21:15:00,
2013-02-18 15:19:00,19.7,13.7,29.70,West,281,8.0,16.0,77,0.00,,,0.00,VWS V14.01,2013-02-18 21:19:00,
2013-02-18 15:24:00,19.4,13.7,29.71,North,360,2.0,16.0,78,0.00,,,0.00,VWS V14.01,2013-02-18 21:24:00,
2013-02-18 15:29:00,19.7,14.0,29.71,West,272,14.0,16.0,78,0.00,,,0.00,VWS V14.01,2013-02-18 21:29:00,
2013-02-18 15:30:00,19.7,14.3,29.71,WSW,237,4.0,16.0,79,0.00,,,0.00,VWS V14.01,2013-02-18 21:30:00,
2013-02-18 15:34:00,19.0,13.0,29.71,WNW,294,9.0,16.0,77,0.00,,,0.00,VWS V14.01,2013-02-18 21:34:00,
2013-02-18 15:39:00,18.6,12.6,29.71,NW,308,7.0,16.0,77,0.00,,,0.00,VWS V14.01,2013-02-18 21:39:00,
2013-02-18 15:44:00,18.6,12.9,29.72,NNW,327,8.0,8.0,78,0.00,,,0.00,VWS V14.01,2013-02-18 21:44:00,
2013-02-18 15:45:00,18.6,12.9,29.72,NW,305,8.0,16.0,78,0.00,,,0.00,VWS V14.01,2013-02-18 21:45:00,
2013-02-18 15:49:00,18.4,12.1,29.72,NW,319,4.0,23.0,76,0.00,,,0.00,VWS V14.01,2013-02-18 21:49:00,
2013-02-18 15:54:00,18.2,12.2,29.72,WNW,294,4.0,23.0,77,0.00,,,0.00,VWS V14.01,2013-02-18 21:54:00,
2013-02-18 16:00:00,18.1,12.1,29.72,NNW,332,3.0,11.0,77,0.00,,,0.00,VWS V14.01,2013-02-18 22:00:00,
2013-02-18 16:05:00,18.0,12.0,29.73,NNW,331,2.0,13.0,77,0.00,,,0.00,VWS V14.01,2013-02-18 22:05:00,
2013-02-18 16:10:00,17.9,12.2,29.73,West,277,10.0,13.0,78,0.00,,,0.00,VWS V14.01,2013-02-18 22:10:00,
2013-02-18 16:15:00,17.5,11.8,29.73,WNW,303,5.0,12.0,78,0.00,,,0.00,VWS V14.01,2013-02-18 22:15:00,
2013-02-18 16:20:00,17.2,11.5,29.73,NW,315,7.0,17.0,78,0.00,,,0.00,VWS V14.01,2013-02-18 22:20:00,
2013-02-18 16:26:00,17.1,11.4,29.74,NW,308,4.0,17.0,78,0.00,,,0.00,VWS V14.01,2013-02-18 22:26:00,
2013-02-18 16:30:00,17.1,11.4,29.74,NW,309,4.0,17.0,78,0.00,,,0.00,VWS V14.01,2013-02-18 22:30:00,
2013-02-18 16:31:00,17.1,11.7,29.74,NW,322,2.0,12.0,79,0.00,,,0.00,VWS V14.01,2013-02-18 22:31:00,
2013-02-18 16:36:00,17.1,11.4,29.74,NW,305,10.0,16.0,78,0.00,,,0.00,VWS V14.01,2013-02-18 22:36:00,
2013-02-18 16:41:00,16.9,11.2,29.74,WNW,290,4.0,16.0,78,0.00,,,0.00,VWS V14.01,2013-02-18 22:41:00,
2013-02-18 16:45:00,16.8,11.4,29.74,North,351,4.0,16.0,79,0.00,,,0.00,VWS V14.01,2013-02-18 22:45:00,
2013-02-18 16:46:00,16.8,11.4,29.74,NW,306,5.0,9.0,79,0.00,,,0.00,VWS V14.01,2013-02-18 22:46:00,
2013-02-18 16:51:00,16.5,10.9,29.75,West,278,4.0,20.0,78,0.00,,,0.00,VWS V14.01,2013-02-18 22:51:00,
2013-02-18 16:56:00,16.4,11.0,29.75,NW,317,12.0,20.0,79,0.00,,,0.00,VWS V14.01,2013-02-18 22:56:00,
2013-02-18 17:00:00,16.3,10.7,29.75,NW,317,9.0,20.0,78,0.00,,,0.00,VWS V14.01,2013-02-18 23:00:00,
2013-02-18 17:02:00,16.1,10.8,29.75,NNW,340,4.0,10.0,79,0.00,,,0.00,VWS V14.01,2013-02-18 23:02:00,
2013-02-18 17:07:00,15.9,10.6,29.75,NW,319,5.0,10.0,79,0.00,,,0.00,VWS V14.01,2013-02-18 23:07:00,
2013-02-18 17:12:00,15.9,10.8,29.75,NNW,329,3.0,10.0,80,0.00,,,0.00,VWS V14.01,2013-02-18 23:12:00,
2013-02-18 17:15:00,15.9,10.8,29.76,NW,317,5.0,10.0,80,0.00,,,0.00,VWS V14.01,2013-02-18 23:15:00,
2013-02-18 17:17:00,15.7,10.9,29.76,NW,322,8.0,9.0,81,0.00,,,0.00,VWS V14.01,2013-02-18 23:17:00,
2013-02-18 17:22:00,15.4,10.4,29.76,West,263,7.0,11.0,80,0.00,,,0.00,VWS V14.01,2013-02-18 23:22:00,
2013-02-18 17:27:00,15.2,10.1,29.75,WNW,282,9.0,13.0,80,0.00,,,0.00,VWS V14.01,2013-02-18 23:27:00,
2013-02-18 17:30:00,15.2,10.1,29.75,West,279,10.0,13.0,80,0.00,,,0.00,VWS V14.01,2013-02-18 23:30:00,
2013-02-18 17:33:00,15.1,10.1,29.76,WNW,291,11.0,11.0,80,0.00,,,0.00,VWS V14.01,2013-02-18 23:33:00,
2013-02-18 17:38:00,15.0,10.0,29.76,NW,313,2.0,11.0,80,0.00,,,0.00,VWS V14.01,2013-02-18 23:38:00,
2013-02-18 17:43:00,15.0,10.0,29.76,WNW,302,9.0,11.0,80,0.00,,,0.00,VWS V14.01,2013-02-18 23:43:00,
2013-02-18 17:45:00,15.0,10.0,29.76,West,271,9.0,11.0,80,0.00,,,0.00,VWS V14.01,2013-02-18 23:45:00,
2013-02-18 17:48:00,14.9,9.6,29.76,SSW,206,4.0,13.0,79,0.00,,,0.00,VWS V14.01,2013-02-18 23:48:00,
2013-02-18 17:53:00,14.8,9.5,29.76,NW,324,4.0,13.0,79,0.00,,,0.00,VWS V14.01,2013-02-18 23:53:00,
2013-02-18 17:58:00,14.8,9.2,29.76,NNW,333,5.0,13.0,78,0.00,,,0.00,VWS V14.01,2013-02-18 23:58:00,
2013-02-18 18:00:00,14.8,9.2,29.76,NNW,333,5.0,13.0,78,0.00,,,0.00,VWS V14.01,2013-02-19 00:00:00,
2013-02-18 18:03:00,14.6,9.0,29.77,NNW,336,6.0,11.0,78,0.00,,,0.00,VWS V14.01,2013-02-19 00:03:00,
2013-02-18 18:09:00,14.5,8.9,29.77,North,360,2.0,11.0,78,0.00,,,0.00,VWS V14.01,2013-02-19 00:09:00,
2013-02-18 18:14:00,14.5,9.2,29.77,WNW,292,3.0,3.0,79,0.00,,,0.00,VWS V14.01,2013-02-19 00:14:00,
2013-02-18 18:15:00,14.5,9.2,29.77,WNW,290,1.0,11.0,79,0.00,,,0.00,VWS V14.01,2013-02-19 00:15:00,
2013-02-18 18:19:00,14.3,9.0,29.77,WNW,302,5.0,12.0,79,0.00,,,0.00,VWS V14.01,2013-02-19 00:19:00,
2013-02-18 18:24:00,13.8,8.8,29.78,NW,317,7.0,14.0,80,0.00,,,0.00,VWS V14.01,2013-02-19 00:24:00,
2013-02-18 18:29:00,13.5,8.2,29.78,WNW,283,2.0,8.0,79,0.00,,,0.00,VWS V14.01,2013-02-19 00:29:00,
2013-02-18 18:30:00,13.5,8.2,29.78,NW,319,8.0,14.0,79,0.00,,,0.00,VWS V14.01,2013-02-19 00:30:00,
2013-02-18 18:34:00,13.4,8.1,29.78,NW,306,7.0,11.0,79,0.00,,,0.00,VWS V14.01,2013-02-19 00:34:00,
2013-02-18 18:39:00,13.2,7.9,29.78,NW,316,4.0,17.0,79,0.00,,,0.00,VWS V14.01,2013-02-19 00:39:00,
2013-02-18 18:44:00,13.2,7.9,29.79,NNW,336,3.0,7.0,79,0.00,,,0.00,VWS V14.01,2013-02-19 00:44:00,
2013-02-18 18:45:00,13.2,7.9,29.79,NNW,339,5.0,17.0,79,0.00,,,0.00,VWS V14.01,2013-02-19 00:45:00,
2013-02-18 18:50:00,13.0,7.4,29.79,NW,313,2.0,14.0,78,0.00,,,0.00,VWS V14.01,2013-02-19 00:50:00,
2013-02-18 18:55:00,12.8,7.5,29.79,North,5,1.0,14.0,79,0.00,,,0.00,VWS V14.01,2013-02-19 00:55:00,
2013-02-18 19:00:00,12.7,7.2,29.79,NW,311,3.0,13.0,78,0.00,,,0.00,VWS V14.01,2013-02-19 01:00:00,
2013-02-18 19:05:00,12.5,7.2,29.79,WNW,301,4.0,13.0,79,0.00,,,0.00,VWS V14.01,2013-02-19 01:05:00,
2013-02-18 19:10:00,12.4,7.1,29.80,NNW,330,4.0,13.0,79,0.00,,,0.00,VWS V14.01,2013-02-19 01:10:00,
2013-02-18 19:15:00,12.2,6.7,29.80,NW,324,6.0,10.0,78,0.00,,,0.00,VWS V14.01,2013-02-19 01:15:00,
2013-02-18 19:21:00,12.0,6.2,29.80,NW,326,3.0,13.0,77,0.00,,,0.00,VWS V14.01,2013-02-19 01:21:00,
2013-02-18 19:26:00,11.8,6.0,29.80,WNW,290,4.0,13.0,77,0.00,,,0.00,VWS V14.01,2013-02-19 01:26:00,
2013-02-18 19:30:00,11.8,6.3,29.81,NW,314,10.0,13.0,78,0.00,,,0.00,VWS V14.01,2013-02-19 01:30:00,
2013-02-18 19:31:00,11.7,5.9,29.81,NW,315,6.0,11.0,77,0.00,,,0.00,VWS V14.01,2013-02-19 01:31:00,
2013-02-18 19:36:00,11.5,6.0,29.81,WNW,292,3.0,11.0,78,0.00,,,0.00,VWS V14.01,2013-02-19 01:36:00,
2013-02-18 19:42:00,11.3,5.5,29.81,NNW,337,4.0,11.0,77,0.00,,,0.00,VWS V14.01,2013-02-19 01:42:00,
2013-02-18 19:45:00,11.2,5.4,29.81,NNW,328,3.0,11.0,77,0.00,,,0.00,VWS V14.01,2013-02-19 01:45:00,
2013-02-18 19:47:00,11.1,5.3,29.81,NW,306,5.0,10.0,77,0.00,,,0.00,VWS V14.01,2013-02-19 01:47:00,
2013-02-18 19:52:00,10.8,5.0,29.81,NNW,348,2.0,10.0,77,0.00,,,0.00,VWS V14.01,2013-02-19 01:52:00,
2013-02-18 19:57:00,10.6,5.1,29.81,NW,310,5.0,10.0,78,0.00,,,0.00,VWS V14.01,2013-02-19 01:57:00,
2013-02-18 20:00:00,10.5,5.0,29.81,WNW,300,2.0,10.0,78,0.00,,,0.00,VWS V14.01,2013-02-19 02:00:00,
2013-02-18 20:02:00,10.4,4.9,29.82,WNW,290,6.0,10.0,78,0.00,,,0.00,VWS V14.01,2013-02-19 02:02:00,
2013-02-18 20:07:00,10.3,5.1,29.81,WSW,249,3.0,10.0,79,0.00,,,0.00,VWS V14.01,2013-02-19 02:07:00,
2013-02-18 20:12:00,10.1,4.9,29.82,NW,325,5.0,10.0,79,0.00,,,0.00,VWS V14.01,2013-02-19 02:12:00,
2013-02-18 20:15:00,10.1,4.9,29.82,NW,315,5.0,10.0,79,0.00,,,0.00,VWS V14.01,2013-02-19 02:15:00,
2013-02-18 20:18:00,9.9,4.7,29.81,NNW,329,5.0,10.0,79,0.00,,,0.00,VWS V14.01,2013-02-19 02:18:00,
2013-02-18 20:23:00,9.8,4.9,29.82,NW,307,3.0,13.0,80,0.00,,,0.00,VWS V14.01,2013-02-19 02:23:00,
2013-02-18 20:28:00,9.8,5.2,29.82,NW,324,4.0,13.0,81,0.00,,,0.00,VWS V14.01,2013-02-19 02:28:00,
2013-02-18 20:30:00,9.9,5.2,29.82,NW,309,5.0,13.0,81,0.00,,,0.00,VWS V14.01,2013-02-19 02:30:00,
2013-02-18 20:33:00,9.7,5.1,29.82,West,275,8.0,9.0,81,0.00,,,0.00,VWS V14.01,2013-02-19 02:33:00,
2013-02-18 20:38:00,9.6,4.9,29.82,NNW,335,2.0,9.0,81,0.00,,,0.00,VWS V14.01,2013-02-19 02:38:00,
2013-02-18 20:43:00,9.5,4.9,29.82,WNW,296,3.0,9.0,81,0.00,,,0.00,VWS V14.01,2013-02-19 02:43:00,
2013-02-18 20:45:00,9.5,4.9,29.82,WNW,300,3.0,9.0,81,0.00,,,0.00,VWS V14.01,2013-02-19 02:45:00,
2013-02-18 20:48:00,9.5,5.1,29.82,NW,310,1.0,7.0,82,0.00,,,0.00,VWS V14.01,2013-02-19 02:48:00,
2013-02-18 20:53:00,9.5,5.1,29.82,NW,312,6.0,9.0,82,0.00,,,0.00,VWS V14.01,2013-02-19 02:53:00,
2013-02-18 20:58:00,9.5,4.9,29.82,NW,321,5.0,5.0,81,0.00,,,0.00,VWS V14.01,2013-02-19 02:58:00,
2013-02-18 21:00:00,9.5,4.9,29.82,NNW,336,4.0,9.0,81,0.00,,,0.00,VWS V14.01,2013-02-19 03:00:00,
2013-02-18 21:03:00,9.5,4.9,29.83,North,360,1.0,12.0,81,0.00,,,0.00,VWS V14.01,2013-02-19 03:03:00,
2013-02-18 21:09:00,9.4,5.0,29.83,NW,318,5.0,12.0,82,0.00,,,0.00,VWS V14.01,2013-02-19 03:09:00,
2013-02-18 21:14:00,9.2,4.8,29.83,WNW,292,3.0,6.0,82,0.00,,,0.00,VWS V14.01,2013-02-19 03:14:00,
2013-02-18 21:15:00,9.2,4.8,29.83,NW,315,3.0,12.0,82,0.00,,,0.00,VWS V14.01,2013-02-19 03:15:00,
2013-02-18 21:19:00,8.9,4.5,29.83,NNW,341,3.0,7.0,82,0.00,,,0.00,VWS V14.01,2013-02-19 03:19:00,
2013-02-18 21:24:00,8.7,4.6,29.84,NW,319,5.0,9.0,83,0.00,,,0.00,VWS V14.01,2013-02-19 03:24:00,
2013-02-18 21:29:00,8.7,4.9,29.84,NW,311,4.0,6.0,84,0.00,,,0.00,VWS V14.01,2013-02-19 03:29:00,
2013-02-18 21:30:00,8.7,4.6,29.84,West,279,2.0,9.0,83,0.00,,,0.00,VWS V14.01,2013-02-19 03:30:00,
2013-02-18 21:35:00,8.6,4.8,29.84,NW,317,3.0,13.0,84,0.00,,,0.00,VWS V14.01,2013-02-19 03:35:00,
2013-02-18 21:40:00,8.5,4.7,29.84,NW,321,3.0,13.0,84,0.00,,,0.00,VWS V14.01,2013-02-19 03:40:00,
2013-02-18 21:45:00,8.3,4.5,29.84,West,278,3.0,16.0,84,0.00,,,0.00,VWS V14.01,2013-02-19 03:45:00,
2013-02-18 21:50:00,8.3,4.7,29.83,NW,317,2.0,8.0,85,0.00,,,0.00,VWS V14.01,2013-02-19 03:50:00,
2013-02-18 21:55:00,8.2,4.6,29.84,WNW,296,3.0,9.0,85,0.00,,,0.00,VWS V14.01,2013-02-19 03:55:00,
2013-02-18 22:00:00,8.1,4.5,29.84,NNW,334,3.0,7.0,85,0.00,,,0.00,VWS V14.01,2013-02-19 04:00:00,
2013-02-18 22:05:00,8.0,4.7,29.84,NW,323,6.0,10.0,86,0.00,,,0.00,VWS V14.01,2013-02-19 04:05:00,
2013-02-18 22:10:00,8.0,4.7,29.84,NW,321,6.0,10.0,86,0.00,,,0.00,VWS V14.01,2013-02-19 04:10:00,
2013-02-18 22:15:00,8.0,4.7,29.84,WNW,300,5.0,10.0,86,0.00,,,0.00,VWS V14.01,2013-02-19 04:15:00,
2013-02-18 22:16:00,7.9,4.6,29.84,NNW,327,2.0,12.0,86,0.00,,,0.00,VWS V14.01,2013-02-19 04:16:00,
2013-02-18 22:21:00,7.9,4.6,29.84,WNW,302,4.0,12.0,86,0.00,,,0.00,VWS V14.01,2013-02-19 04:21:00,
2013-02-18 22:26:00,7.8,4.5,29.84,North,349,5.0,12.0,86,0.00,,,0.00,VWS V14.01,2013-02-19 04:26:00,
2013-02-18 22:30:00,7.7,4.4,29.84,NW,317,5.0,12.0,86,0.00,,,0.00,VWS V14.01,2013-02-19 04:30:00,
2013-02-18 22:31:00,7.7,4.1,29.84,WNW,302,6.0,10.0,85,0.00,,,0.00,VWS V14.01,2013-02-19 04:31:00,
2013-02-18 22:36:00,7.6,4.0,29.84,NW,326,6.0,10.0,85,0.00,,,0.00,VWS V14.01,2013-02-19 04:36:00,
2013-02-18 22:41:00,7.5,3.9,29.85,NNW,338,3.0,10.0,85,0.00,,,0.00,VWS V14.01,2013-02-19 04:41:00,
2013-02-18 22:45:00,7.5,3.9,29.85,North,5,4.0,10.0,85,0.00,,,0.00,VWS V14.01,2013-02-19 04:45:00,
2013-02-18 22:46:00,7.5,3.9,29.85,NNW,339,2.0,9.0,85,0.00,,,0.00,VWS V14.01,2013-02-19 04:46:00,
2013-02-18 22:52:00,7.4,3.8,29.84,NNW,342,6.0,10.0,85,0.00,,,0.00,VWS V14.01,2013-02-19 04:52:00,
2013-02-18 22:57:00,7.3,3.5,29.85,NW,325,5.0,10.0,84,0.00,,,0.00,VWS V14.01,2013-02-19 04:57:00,
2013-02-18 23:00:00,7.2,3.7,29.85,NNW,336,2.0,6.0,85,0.00,,,0.00,VWS V14.01,2013-02-19 05:00:00,
2013-02-18 23:04:00,7.2,3.7,29.85,NNW,346,6.0,12.0,85,0.00,,,0.00,VWS V14.01,2013-02-19 05:04:00,
2013-02-18 23:09:00,7.0,3.2,29.85,WNW,292,6.0,12.0,84,0.00,,,0.00,VWS V14.01,2013-02-19 05:09:00,
2013-02-18 23:14:00,6.9,3.1,29.85,North,5,5.0,5.0,84,0.00,,,0.00,VWS V14.01,2013-02-19 05:14:00,
2013-02-18 23:15:00,6.9,3.1,29.85,North,355,5.0,12.0,84,0.00,,,0.00,VWS V14.01,2013-02-19 05:15:00,
2013-02-18 23:19:00,6.7,2.6,29.86,WNW,302,3.0,9.0,83,0.00,,,0.00,VWS V14.01,2013-02-19 05:19:00,
2013-02-18 23:24:00,6.6,2.5,29.86,NNW,328,2.0,10.0,83,0.00,,,0.00,VWS V14.01,2013-02-19 05:24:00,
2013-02-18 23:29:00,6.5,2.5,29.86,NNW,344,2.0,6.0,83,0.00,,,0.00,VWS V14.01,2013-02-19 05:29:00,
2013-02-18 23:30:00,6.5,2.5,29.86,WNW,290,3.0,10.0,83,0.00,,,0.00,VWS V14.01,2013-02-19 05:30:00,
2013-02-18 23:34:00,6.4,2.3,29.86,NW,317,6.0,12.0,83,0.00,,,0.00,VWS V14.01,2013-02-19 05:34:00,
2013-02-18 23:40:00,6.4,2.3,29.86,North,5,2.0,12.0,83,0.00,,,0.00,VWS V14.01,2013-02-19 05:40:00,
2013-02-18 23:45:00,6.4,2.3,29.87,WNW,298,2.0,6.0,83,0.00,,,0.00,VWS V14.01,2013-02-19 05:45:00,
2013-02-18 23:50:00,6.4,2.3,29.87,WNW,287,6.0,10.0,83,0.00,,,0.00,VWS V14.01,2013-02-19 05:50:00,
2013-02-18 23:55:00,6.3,2.2,29.87,North,355,2.0,10.0,83,0.00,,,0.00,VWS V14.01,2013-02-19 05:55:00,